Terminal Aerodrome Forecast
Issued by NWS Green Bay, WI

Home | Current Version | Previous Version | Graphics & Text | Print | Product List | Glossary On
Versions: 1 2 3 4 5 6 7 8 9 10 11 12 13 14 15 16 17 18 19 20 21 22 23 24 25 26 27 28 29 30 31 32 33 34 35 36 37 38 39 40 41 42 43 44 45 46 47 48 49 50
000
FTUS43 KGRB 261100
TAFGRB
TAF
KGRB 261129Z 2612/2712 29011G17KT P6SM OVC035
     FM261500 32013G19KT P6SM BKN035
     FM270200 35010G17KT P6SM SCT040=

USA.gov is the U.S. government's official web portal to all federal, state and local government web resources and services.